Temperature
12 11 11 11 11 11 11 11 11 11 11 12 12 12 12 12 13 13 13 13 13 13 14 14 14 14 14 14 14 15 15 14 14 15 15 15 15 16 16 16 16 16 16
12 11 11 11 11 11 11 11 11 11 11 11 11 12 12 12 12 12 13 13 13 13 13 13 13 14 14 14 14 14 14 14 14 14 14 15 15 15 15 15 15 15 15
12 11 11 11 11 10 10 10 10 10 10 11 11 11 11 11 12 12 12 12 12 12 12 13 13 13 13 13 13 14 14 14 14 14 14 14 14 14 15 15 15 15 15
12 12 11 11 11 10 10 10 10 10 10 10 10 10 11 11 11 11 12 12 12 12 12 12 12 12 13 13 13 13 14 13 14 13 14 14 14 14 14 14 14 14 14
12 12 11 11 10 10 10 10 10 10 10 10 10 10 10 10 11 11 11 11 11 12 12 12 12 12 12 12 13 13 13 13 13 13 13 13 13 13 14 14 14 14 13
13 12 11 11 10 10 10 10 10 9 9 9 9 10 10 10 10 10 10 11 11 11 11 11 11 12 12 12 12 13 13 13 13 13 13 13 13 13 13 13 13 13 13
13 12 11 11 10 10 10 10 10 9 9 9 9 9 9 9 10 10 10 10 11 11 11 11 11 11 11 12 12 12 13 13 13 13 13 13 13 13 13 13 13 13 13
13 12 11 11 11 10 10 10 10 9 9 9 9 9 9 9 9 9 10 10 10 10 11 11 11 11 11 11 12 12 12 12 12 13 13 13 13 13 13 13 13 13 13
13 12 11 11 11 10 10 10 10 9 9 9 9 9 9 9 9 9 9 10 10 10 11 11 11 11 11 11 12 12 12 12 12 12 12 13 13 13 13 13 13 13 12
13 12 12 11 11 10 10 10 10 10 9 9 9 9 9 9 9 9 9 10 10 10 10 11 11 11 11 11 11 12 12 12 12 12 12 12 12 12 13 13 13 13 12
13 13 12 11 11 11 10 10 10 10 10 10 9 9 9 9 9 9 9 9 9 10 10 11 11 11 11 11 11 12 12 12 12 12 12 12 12 12 12 12 12 13 13
14 13 12 12 11 11 11 10 10 10 10 10 10 9 9 9 9 9 9 9 9 10 10 10 11 11 11 11 11 11 12 12 12 12 12 12 12 12 12 12 12 12 12
14 14 13 12 12 11 11 11 10 10 10 10 10 10 9 9 9 9 9 9 9 10 10 10 11 11 11 11 11 11 11 12 12 12 12 11 11 11 11 11 11 11 11
15 14 13 13 12 12 11 11 11 10 10 10 10 10 9 9 9 9 9 9 9 10 10 10 10 11 11 11 11 11 11 11 11 12 11 11 11 11 11 11 11 11 11
15 15 14 13 13 12 12 11 11 11 10 10 10 10 10 10 9 9 9 9 10 10 10 10 10 11 11 11 11 11 11 11 11 11 11 11 11 11 11 11 11 11 11
16 15 15 14 13 13 12 12 11 11 11 10 10 10 10 10 10 9 10 10 10 10 10 10 10 10 11 11 11 11 11 11 11 11 11 11 11 11 11 11 11 11 11
16 16 15 15 14 13 13 12 12 11 11 11 11 10 10 10 10 10 10 10 10 10 10 10 10 11 11 11 11 11 11 11 11 11 11 11 11 11 11 10 10 10 10
16 16 16 15 14 14 13 13 12 12 11 11 11 11 11 10 10 10 10 10 10 10 10 10 10 11 11 11 11 11 11 11 11 11 11 11 11 10 10 10 10 10 10
17 16 16 16 15 14 14 13 13 12 12 12 11 11 11 11 10 10 10 10 10 10 10 11 11 11 11 11 11 11 11 11 11 11 11 11 10 10 10 10 10 10 10
17 17 16 16 15 15 14 14 13 13 12 12 12 12 11 11 11 11 10 10 10 10 10 11 11 11 11 11 11 11 11 11 11 11 11 10 10 10 10 10 10 10 10
17 17 16 16 16 15 15 14 14 13 13 12 12 12 12 11 11 11 11 11 11 11 10 11 11 11 11 11 11 11 11 11 11 11 10 10 10 10 10 10 10 9 9
16 16 16 16 16 16 15 15 14 14 13 13 13 12 12 12 12 11 11 11 11 11 11 11 11 11 11 11 11 11 11 11 11 10 10 10 10 10 10 9 9 9 9
15 16 16 16 16 15 15 15 14 14 14 13 13 13 12 12 12 12 12 11 11 11 11 11 11 11 11 11 11 10 10 10 10 10 10 10 10 9 9 9 9 9 9
14 14 15 15 15 15 15 15 15 14 14 14 13 13 13 13 12 12 12 12 11 11 11 11 11 11 11 11 11 10 10 10 10 10 10 10 9 9 9 9 9 9 8
12 13 13 14 14 14 14 14 14 14 14 14 14 13 13 13 13 12 12 12 12 11 12 12 12 12 11 11 11 11 11 10 10 10 10 9 9 9 9 9 9 8 8
10 11 11 12 12 12 13 13 14 14 14 14 14 14 13 13 13 13 13 12 12 12 12 12 12 12 12 12 12 11 11 11 10 10 10 10 9 9 9 9 8 8 8
Wind_Speed
5 5 6 6 6 6 5 6 6 7 8 8 8 9 9 9 9 7 7 5 3 2 2 2 3 3 4 4 5 6 6 6 6 3 3 3 5 6 6 9 10 10 12
4 4 5 5 5 6 6 6 6 7 7 7 8 8 8 9 9 8 8 7 5 4 3 2 2 2 3 4 5 6 6 6 5 5 4 4 4 6 7 7 7 9 10
3 4 5 5 5 6 6 6 6 6 7 7 7 8 8 8 8 8 7 6 5 4 3 3 3 2 3 3 4 5 5 6 5 5 4 3 3 5 6 6 7 5 8
2 2 4 5 5 5 5 5 6 6 6 7 7 7 8 8 7 7 7 6 6 5 4 3 2 2 3 3 4 5 5 6 6 6 5 4 4 5 7 8 7 5 6
2 2 4 4 4 5 5 5 6 6 6 6 7 7 8 7 8 8 6 6 5 5 4 4 3 3 3 2 2 4 5 5 6 6 5 5 6 7 8 6 8 8 6
3 3 3 3 4 5 5 5 6 6 6 6 6 7 7 7 12 13 8 5 5 5 5 5 4 4 4 3 2 3 5 6 6 6 5 6 7 7 7 9 10 8 5
3 3 3 3 4 5 5 5 6 6 5 6 6 6 7 9 14 14 11 6 5 5 5 4 4 4 5 3 3 1 1 5 6 5 6 6 7 9 10 11 10 8 6
3 3 3 3 4 4 5 5 5 4 5 5 5 6 6 8 14 14 11 6 4 5 4 4 4 4 4 3 2 2 2 0 2 4 5 5 6 8 9 9 10 10 9
4 5 4 3 4 4 5 5 4 4 4 4 4 5 6 8 13 13 10 4 4 5 5 4 3 3 5 3 2 2 2 2 1 3 5 6 9 12 12 11 11 12 8
6 6 5 4 4 5 5 5 3 3 4 5 4 4 5 6 11 13 10 3 4 5 5 5 5 4 4 4 2 2 2 1 2 4 5 6 8 11 14 12 12 12 9
6 5 5 5 5 5 4 3 3 4 4 4 4 5 5 6 9 11 11 4 3 3 4 4 4 5 5 4 3 2 2 2 3 4 5 5 6 7 7 6 7 10 9
5 6 6 6 5 3 3 3 3 3 4 4 5 5 5 5 7 9 11 8 5 2 3 3 4 5 5 5 4 4 5 5 4 4 5 5 5 5 6 7 9 8 6
6 7 7 6 5 4 4 4 3 2 2 3 3 4 5 5 6 9 10 10 8 3 3 4 4 5 6 5 6 6 5 4 4 5 5 4 4 5 7 8 10 11 13
8 8 7 6 6 5 4 4 3 3 3 3 3 3 4 4 4 5 6 5 6 4 3 3 4 6 5 4 5 5 4 4 4 5 4 4 4 5 7 7 8 9 8
9 8 7 7 7 6 5 5 6 6 6 5 4 3 3 4 5 8 6 5 4 3 2 2 2 2 3 3 4 4 4 4 4 4 5 6 6 7 6 6 6 5 5
8 8 7 6 6 6 6 5 8 10 10 11 10 7 6 7 8 9 9 7 6 2 1 1 1 1 2 2 3 3 4 4 4 5 5 6 6 7 6 5 5 6 7
11 9 7 7 6 6 6 6 6 6 8 11 12 12 11 9 8 7 7 6 4 2 1 0 0 0 0 1 2 2 2 2 3 5 5 5 6 6 6 6 6 6 6
11 12 9 8 7 7 7 7 6 5 5 5 6 10 12 11 8 7 5 2 2 2 1 1 1 1 1 1 1 2 2 3 3 4 5 4 5 5 5 5 5 6 6
10 9 9 8 8 7 7 6 6 7 6 6 4 4 8 8 7 6 3 2 3 2 2 2 2 2 2 2 2 2 3 3 4 4 4 5 5 5 5 5 5 8 5
10 14 12 8 8 7 7 7 7 7 7 7 7 6 4 4 4 4 4 4 4 4 4 4 3 3 3 3 3 3 4 4 5 4 4 5 5 5 6 6 6 6 4
8 10 14 9 8 9 8 9 9 8 8 8 8 8 10 7 7 7 6 6 6 6 6 5 5 4 4 4 4 5 5 4 5 5 5 5 5 4 4 5 5 5 5
8 8 8 9 9 9 9 9 9 9 10 10 8 7 12 8 7 7 7 8 7 7 6 6 5 5 5 5 6 6 6 6 6 5 5 5 5 5 5 5 5 5 5
8 9 8 9 9 11 11 9 9 9 10 10 9 7 7 8 9 9 9 8 8 7 7 7 6 6 5 5 6 6 7 7 7 7 7 7 6 6 5 5 6 5 5
10 9 10 9 9 9 10 10 10 10 10 10 9 9 9 9 9 10 10 8 8 8 8 8 8 9 10 7 8 9 9 10 10 9 10 9 8 7 6 5 6 6 6
11 10 9 9 9 10 10 10 11 11 11 10 10 10 9 10 10 10 9 9 10 9 10 10 8 9 11 12 11 12 14 14 14 12 10 8 8 8 8 7 6 5 5
13 12 10 9 8 9 9 10 11 11 11 11 11 10 10 10 10 10 10 9 10 10 10 10 11 12 13 14 17 18 18 18 17 16 13 8 9 8 8 7 8 6 6
Wind_Direction
329 333 340 342 347 355 360 356 351 352 355 358 356 356 357 358 356 357 354 349 342 335 327 247 224 201 206 207 203 198 198 194 209 197 175 168 178 184 173 181 185 180 180
315 328 333 339 348 354 351 347 348 351 352 353 352 355 355 354 354 357 356 355 352 351 341 318 270 217 215 212 210 203 202 197 196 196 180 172 180 179 166 166 168 171 167
310 329 333 339 345 343 339 339 346 348 349 352 354 352 348 345 347 349 348 348 348 344 338 332 326 305 250 225 215 205 198 198 191 184 181 168 157 155 151 150 146 137 147
284 316 319 323 326 326 329 336 342 345 347 348 346 344 341 338 342 345 346 347 346 343 342 337 323 300 274 249 223 210 197 196 190 182 176 167 154 151 154 150 144 133 130
243 286 297 310 320 328 333 334 338 344 346 340 342 346 345 344 348 348 344 345 346 345 347 348 330 317 294 259 230 206 193 193 183 183 176 171 164 162 165 153 145 132 118
228 263 289 312 325 330 328 329 334 338 338 341 344 342 346 349 347 356 360 351 347 348 344 341 337 348 353 345 294 222 198 187 183 180 180 179 171 162 155 151 145 142 136
229 260 283 298 311 318 323 329 329 328 331 332 333 338 338 335 349 357 1 2 352 348 341 338 347 359 2 358 7 13 207 195 191 179 180 181 172 166 160 159 156 145 132
235 261 274 283 297 311 319 320 318 316 322 323 326 333 335 341 351 352 357 3 354 350 343 338 341 340 343 356 25 47 44 144 192 184 183 179 169 164 162 153 140 121 109
241 253 259 262 282 301 309 311 311 315 321 321 322 336 341 338 347 348 1 350 352 352 348 348 346 339 343 7 47 68 65 48 86 151 158 160 160 155 148 141 142 142 136
237 240 246 248 260 277 289 297 302 308 311 318 326 340 343 336 344 352 1 353 354 349 347 351 357 357 3 24 46 65 76 65 105 115 124 137 147 154 155 158 156 152 142
231 233 242 246 253 262 280 290 307 320 332 337 332 330 335 339 344 354 0 3 350 346 346 344 344 2 25 37 46 56 78 102 113 120 125 128 135 145 147 142 146 153 148
218 230 242 248 253 258 266 290 311 332 338 339 336 332 331 334 341 349 0 6 5 346 332 327 334 10 36 44 51 68 75 87 103 109 115 119 124 129 129 122 108 95 93
215 232 241 248 249 248 248 268 289 306 318 320 328 326 323 327 335 353 1 1 1 353 323 331 5 40 44 44 58 65 63 74 92 103 104 97 95 111 117 110 98 93 89
221 233 237 241 250 245 236 233 238 253 263 283 300 309 315 320 328 340 342 344 348 353 347 357 30 54 54 47 52 52 52 67 89 97 97 91 94 105 113 115 117 114 104
226 233 235 233 237 241 237 230 228 229 212 219 234 240 269 303 303 323 331 327 324 315 339 10 20 35 46 47 53 56 57 64 78 80 93 98 99 101 103 105 114 107 112
227 233 231 229 230 230 238 259 241 233 241 233 225 219 234 249 282 313 328 337 340 347 74 43 20 40 67 70 72 64 59 69 78 91 94 99 105 108 104 98 100 113 122
224 229 224 221 222 224 222 230 258 265 247 244 240 235 235 249 271 299 318 335 3 69 91 109 228 253 105 99 88 84 86 86 93 101 104 105 107 107 108 109 109 111 117
226 230 223 220 218 219 219 220 222 234 259 267 251 239 237 240 250 270 295 326 5 44 140 196 222 228 207 167 146 127 121 118 112 114 114 114 115 115 116 122 125 129 131
227 229 225 220 216 215 215 215 217 222 231 244 258 261 238 230 234 246 227 201 221 228 216 214 216 214 208 193 177 162 152 147 141 135 134 136 134 126 127 130 131 135 129
238 233 221 217 214 212 211 213 218 221 227 232 238 238 206 183 212 223 209 208 213 220 219 217 214 211 203 193 181 169 159 156 153 149 150 151 150 146 149 152 154 155 156
252 244 230 220 217 216 214 216 218 218 223 229 238 228 195 198 215 216 212 211 212 215 214 214 212 208 203 191 181 179 178 175 172 166 161 161 158 156 156 158 162 161 152
268 252 234 226 223 220 219 217 214 216 221 228 237 234 212 208 216 217 217 219 216 212 205 201 207 207 201 194 187 183 183 184 181 175 170 166 163 160 154 156 160 162 164
284 267 250 239 230 226 223 220 216 219 222 225 226 222 207 212 220 221 222 220 214 211 205 200 204 208 206 201 195 189 190 194 189 179 174 172 171 170 166 169 170 168 180
303 282 265 252 239 232 227 224 222 222 222 224 223 222 218 216 218 221 221 216 211 210 205 202 206 208 204 200 202 203 204 201 189 184 179 177 177 175 172 173 178 183 186
322 306 286 267 251 242 237 233 228 224 223 223 223 222 219 216 217 220 218 213 208 210 209 206 207 210 208 204 202 204 207 203 195 188 182 178 180 180 178 178 179 180 182
336 327 313 296 274 257 247 242 237 231 227 225 222 220 217 216 216 217 214 210 210 212 211 209 208 207 206 209 210 209 207 205 201 193 184 179 182 186 183 186 185 184 184
Height
1524 1521 1518 1515 1513 1510 1507 1504 1501 1498 1495 1492 1489 1486 1484 1482 1479 1478 1476 1475 1474 1474 1473 1474 1475 1476 1478 1479 1481 1484 1486 1489 1492 1495 1498 1501 1505 1509 1512 1517 1521 1525 1529
1524 1521 1518 1515 1513 1510 1507 1504 1501 1498 1495 1492 1489 1486 1484 1481 1479 1477 1475 1474 1473 1472 1471 1472 1472 1472 1474 1475 1477 1478 1481 1483 1487 1489 1492 1495 1499 1503 1507 1511 1515 1520 1524
1523 1520 1518 1515 1512 1509 1506 1504 1501 1498 1495 1492 1489 1486 1484 1481 1479 1477 1475 1474 1472 1471 1471 1470 1469 1470 1470 1471 1472 1474 1476 1478 1481 1484 1486 1490 1493 1497 1501 1506 1510 1514 1519
1522 1520 1517 1514 1512 1509 1506 1503 1500 1498 1495 1492 1489 1486 1484 1481 1479 1477 1475 1473 1472 1471 1470 1469 1468 1468 1468 1468 1469 1470 1471 1474 1476 1479 1482 1484 1488 1492 1497 1500 1505 1510 1514
1521 1519 1516 1514 1511 1508 1506 1503 1500 1498 1495 1492 1490 1487 1484 1481 1479 1477 1475 1473 1472 1471 1470 1469 1468 1467 1466 1466 1466 1467 1468 1470 1471 1474 1477 1480 1483 1487 1491 1496 1501 1506 1511
1520 1518 1515 1513 1510 1508 1505 1503 1500 1498 1495 1492 1490 1487 1484 1481 1479 1477 1475 1473 1472 1470 1469 1468 1467 1466 1465 1464 1464 1465 1466 1467 1468 1470 1473 1475 1478 1483 1488 1492 1497 1502 1507
1518 1516 1514 1512 1509 1507 1504 1502 1500 1497 1495 1492 1490 1487 1484 1481 1478 1476 1474 1472 1471 1470 1469 1468 1467 1466 1465 1464 1463 1463 1463 1464 1466 1468 1470 1473 1476 1479 1484 1489 1493 1498 1503
1517 1515 1513 1511 1509 1506 1504 1501 1499 1497 1494 1491 1489 1486 1483 1480 1478 1475 1473 1472 1471 1469 1468 1467 1466 1465 1465 1463 1462 1462 1462 1463 1464 1466 1468 1472 1475 1478 1482 1486 1490 1496 1502
1516 1514 1512 1510 1508 1505 1503 1501 1498 1496 1493 1490 1488 1485 1482 1480 1477 1475 1473 1472 1470 1469 1468 1467 1466 1466 1465 1464 1463 1463 1463 1463 1464 1466 1467 1470 1473 1476 1480 1484 1488 1493 1498
1515 1513 1511 1509 1507 1505 1503 1500 1497 1495 1492 1489 1487 1484 1481 1479 1476 1474 1473 1471 1470 1469 1468 1467 1467 1466 1465 1464 1464 1463 1463 1463 1464 1465 1467 1469 1472 1475 1478 1482 1487 1491 1495
1513 1512 1510 1508 1506 1504 1502 1500 1497 1494 1491 1488 1485 1483 1480 1478 1476 1474 1473 1471 1470 1469 1468 1468 1467 1467 1466 1465 1465 1464 1464 1464 1464 1465 1466 1469 1471 1474 1477 1481 1486 1490 1494
1511 1510 1508 1507 1505 1503 1501 1499 1496 1493 1490 1487 1485 1482 1480 1477 1475 1474 1473 1472 1471 1470 1469 1468 1468 1468 1467 1467 1466 1465 1464 1464 1465 1466 1467 1469 1471 1474 1477 1481 1485 1490 1494
1509 1508 1507 1505 1504 1502 1500 1498 1495 1493 1490 1487 1484 1482 1479 1477 1475 1474 1473 1472 1471 1470 1469 1469 1469 1469 1469 1468 1467 1467 1466 1466 1466 1467 1468 1470 1472 1474 1478 1481 1485 1489 1494
1507 1505 1504 1503 1501 1500 1498 1496 1494 1492 1489 1487 1484 1482 1479 1477 1476 1474 1473 1472 1471 1471 1470 1470 1470 1470 1470 1470 1469 1469 1468 1468 1469 1469 1470 1472 1474 1476 1479 1482 1486 1490 1494
1503 1502 1501 1500 1498 1497 1496 1494 1492 1491 1489 1486 1484 1481 1479 1477 1476 1474 1473 1472 1472 1471 1471 1471 1471 1471 1471 1471 1471 1471 1471 1471 1471 1472 1473 1474 1476 1478 1481 1484 1487 1491 1494
1499 1498 1497 1496 1495 1494 1493 1491 1490 1489 1487 1485 1483 1481 1479 1477 1476 1475 1474 1473 1473 1472 1472 1472 1472 1473 1473 1473 1473 1474 1474 1474 1475 1475 1476 1477 1479 1481 1483 1486 1489 1492 1495
1494 1494 1493 1492 1491 1490 1489 1488 1487 1486 1485 1483 1481 1480 1478 1476 1475 1474 1473 1473 1473 1473 1473 1473 1473 1474 1474 1475 1475 1476 1477 1477 1478 1479 1480 1481 1482 1484 1486 1488 1491 1493 1496
1488 1488 1487 1487 1486 1485 1485 1484 1483 1482 1481 1480 1479 1478 1477 1475 1474 1473 1472 1472 1472 1472 1472 1473 1473 1474 1475 1476 1476 1477 1478 1479 1480 1481 1482 1484 1485 1487 1488 1490 1493 1495 1497
1481 1481 1481 1481 1480 1480 1479 1479 1478 1478 1477 1476 1476 1475 1474 1473 1472 1471 1470 1470 1470 1470 1471 1471 1472 1473 1474 1475 1477 1478 1479 1480 1482 1483 1484 1486 1487 1489 1490 1492 1493 1495 1497
1473 1474 1474 1473 1473 1473 1473 1473 1473 1472 1472 1472 1471 1471 1471 1470 1469 1468 1468 1467 1467 1468 1468 1469 1470 1471 1473 1474 1475 1477 1478 1480 1481 1483 1485 1486 1487 1489 1490 1492 1493 1495 1496
1464 1465 1465 1465 1465 1466 1466 1466 1466 1466 1466 1466 1466 1467 1467 1466 1465 1465 1464 1464 1464 1464 1465 1466 1467 1469 1470 1472 1473 1475 1477 1478 1480 1482 1483 1485 1487 1488 1489 1491 1492 1493 1495
1456 1456 1456 1456 1457 1457 1458 1458 1458 1459 1459 1459 1460 1461 1461 1461 1460 1460 1460 1460 1460 1460 1461 1462 1463 1465 1466 1468 1470 1472 1474 1476 1478 1479 1481 1483 1484 1486 1487 1489 1490 1491 1492
1448 1447 1447 1447 1447 1448 1449 1449 1450 1450 1451 1451 1452 1453 1454 1454 1455 1455 1455 1455 1455 1456 1456 1457 1458 1460 1462 1464 1466 1468 1470 1472 1474 1476 1478 1480 1481 1483 1484 1486 1487 1488 1489
1441 1439 1438 1438 1438 1439 1439 1440 1441 1442 1442 1443 1444 1445 1446 1447 1448 1449 1449 1450 1450 1450 1451 1452 1453 1455 1456 1458 1460 1463 1465 1467 1470 1472 1474 1475 1477 1479 1480 1482 1483 1484 1485
1436 1433 1431 1430 1429 1429 1430 1431 1432 1432 1433 1434 1435 1436 1437 1439 1440 1441 1442 1443 1444 1444 1445 1446 1447 1449 1450 1452 1454 1457 1459 1462 1464 1466 1468 1470 1472 1474 1475 1477 1478 1479 1480
1431 1428 1425 1422 1421 1421 1421 1421 1422 1423 1424 1425 1426 1427 1428 1430 1431 1433 1434 1436 1437 1438 1439 1440 1441 1443 1444 1446 1448 1450 1453 1455 1457 1459 1462 1464 1465 1467 1469 1471 1472 1473 1475